Location: Unspecified
(0.0000°N, 0.0000°E)
Time: 14:04:01
(UTC+00:00)

Envisat - Pass Details

Date: 19 August 2019
Orbit: 764 x 766 km, 98.1° (Epoch: 21 August)

Event Time Altitude Azimuth Distance (km) Brightness Sun altitude
Rises 18:57:40 0° 177° (S) 3,231 6.1 -13.2°
Reaches altitude 10° 19:00:01 10° 181° (S) 2,302 5.4 -13.7°
Maximum altitude 19:04:57 54° 258° (WSW) 927 3.8 -14.9°
Drops below altitude 10° 19:09:52 10° 335° (NNW) 2,291 6.0 -16.1°
Sets 19:12:13 0° 339° (NNW) 3,214 6.7 -16.7°
